Simultaneous Nadir Overpasses (SNOs) Predictions

Prediction of SNOs between NPP and GCOM-C Satellite Orbit:

Table of predicted SNOs for the next 14.0 days since TLE Epoch: 7/16/2022
Index Date (NPP) Time (NPP) Lat,Lon (NPP) SZA (NPP ) Date (GCOM-C) Time (GCOM-C) Lat,Lon (GCOM-C) SZA (GCOM-C ) Distance(km) Time Diff (sec)
1 07/16/2022 07:29:31 69.07, 65.42 47.66 07/16/2022 07:30:41 69.04, 66.69 47.60 50.98 70
2 07/16/2022 08:20:06 -68.61,-126.65 132.81 07/16/2022 08:21:19 -68.60,-126.51 132.83 5.71 73
3 07/16/2022 09:10:51 68.53, 40.76 47.12 07/16/2022 09:11:47 68.55, 40.81 47.13 2.62 56
4 07/16/2022 10:01:34 -68.51,-151.88 132.90 07/16/2022 10:02:18 -68.49,-151.89 132.92 1.68 44
5 07/16/2022 10:52:20 68.48, 15.45 47.08 07/16/2022 10:52:45 68.49, 15.50 47.09 2.33 25
6 07/16/2022 11:43:03 -68.45,-177.19 132.94 07/16/2022 11:43:16 -68.44,-177.20 132.96 2.02 13
7 07/16/2022 12:33:49 68.43, -9.85 47.04 07/16/2022 12:33:43 68.44, -9.81 47.05 2.08 6
8 07/16/2022 13:24:32 -68.40, 157.50 132.99 07/16/2022 13:24:14 -68.38, 157.49 133.01 2.35 18
9 07/16/2022 14:15:18 68.38, -35.16 47.00 07/16/2022 14:14:41 68.38, -35.12 47.01 1.90 37
10 07/16/2022 15:06:01 -68.35, 132.19 133.03 07/16/2022 15:05:12 -68.33, 132.19 133.05 2.69 49
11 07/16/2022 15:56:47 68.33, -60.47 46.96 07/16/2022 15:55:39 68.33, -60.42 46.96 1.79 68
12 07/16/2022 16:47:26 -68.08, 107.16 133.29 07/16/2022 16:46:13 -68.11, 106.68 133.25 20.29 73
13 07/16/2022 17:38:00 67.41, -84.71 46.03 07/16/2022 17:36:52 67.46, -86.73 46.13 86.62 68
14 07/29/2022 05:54:36 -69.30, -91.15 129.49 07/29/2022 05:55:45 -69.21, -89.30 129.63 73.53 69
15 07/29/2022 06:45:10 68.65, 77.04 49.85 07/29/2022 06:46:23 68.61, 77.28 49.80 10.21 73
16 07/29/2022 07:35:51 -68.50,-115.44 130.30 07/29/2022 07:36:55 -68.51,-115.48 130.29 2.19 64
17 07/29/2022 08:26:37 68.49, 51.88 49.70 07/29/2022 08:27:22 68.50, 51.90 49.71 1.57 45
18 07/29/2022 09:17:20 -68.45,-140.75 130.34 07/29/2022 09:17:53 -68.46,-140.79 130.33 1.90 33
19 07/29/2022 10:08:06 68.44, 26.57 49.66 07/29/2022 10:08:20 68.45, 26.59 49.67 1.08 14
20 07/29/2022 10:58:49 -68.40,-166.06 130.38 07/29/2022 10:58:51 -68.40,-166.10 130.37 1.69 2
21 07/29/2022 11:49:35 68.39, 1.26 49.63 07/29/2022 11:49:18 68.39, 1.28 49.63 0.66 17
22 07/29/2022 12:40:18 -68.35, 168.63 130.41 07/29/2022 12:39:49 -68.35, 168.60 130.41 1.59 29
23 07/29/2022 13:31:04 68.34, -24.04 49.59 07/29/2022 13:30:16 68.33, -24.03 49.59 0.54 48
24 07/29/2022 14:21:47 -68.29, 143.33 130.45 07/29/2022 14:20:47 -68.29, 143.29 130.45 1.62 60
25 07/29/2022 15:12:30 68.12, -49.15 49.39 07/29/2022 15:11:17 68.11, -49.55 49.40 16.56 73
26 07/29/2022 16:03:05 -67.65, 118.76 131.09 07/29/2022 16:01:55 -67.69, 117.31 131.01 61.21 70



Historial Predications of SNOs between NPP and GCOM-C
